Regional Weather Roundup
Issued by NWS

Home | Current Version | Previous Version | Text Only | Print | Product List | Glossary Off
Versions: 1 2 3 4 5 6 7 8 9 10 11 12 13 14 15 16 17 18 19 20 21 22 23 24 25 26 27 28 29 30 31 32 33 34 35 36 37 38 39 40 41 42 43 44 45 46 47 48 49 50

000
ASUS43 KDTX 270901
RWRMI
MICHIGAN HOURLY REGIONAL WEATHER ROUNDUP
NATIONAL WEATHER SERVICE DETROIT/PONTIAC MI
500 AM EDT TUE JUN 27 2017

NOTE: "FAIR" INDICATES FEW OR NO CLOUDS BELOW 12,000 FEET WITH NO
SIGNIFICANT WEATHER AND/OR OBSTRUCTION TO VISIBILITY.

MIZ047>049-052>055-059>063-066>070-074>076-081>083-271000-
SOUTHEAST LOWER MICHIGAN

CITY           SKY/WX    TMP DP  RH WIND       PRES   REMARKS
ADRIAN         CLEAR     49  46  90 W5        30.04S
ALMA           CLOUDY    50  49  97 W7        30.03S
ANN ARBOR      CLEAR     49  47  93 W5        30.02R
BAD AXE        CLOUDY    52  47  84 CALM      29.97R
CARO           CLOUDY    54  47  79 W6        29.98R
DETROIT CITY   CLOUDY    53  47  79 W7        30.00R
DETROIT        MOCLDY    53  47  79 W9        30.02R
FLINT          CLOUDY    52  48  86 NW9       30.01R
GROSSE ILE     CLEAR     52  46  80 W8        30.00S
HILLSDALE      MOCLDY    50  45  81 W6        30.04R
HOWELL         CLOUDY    51  47  84 W7        30.02S

CITY           SKY/WX    TMP DP  RH WIND       PRES   REMARKS
JACKSON        PTCLDY    50  46  86 W5        30.04R
LAMBERTVILLE   CLEAR     51  46  81 W6        30.03S
LANSING        CLEAR     51  47  86 W5        30.05R
LAPEER         RAIN      53  48  83 NW6       30.00R
MASON          CLEAR     50  47  92 W6        30.04R
MONROE         PTCLDY    49  46  88 W6        30.02R
MT. CLEMENS    PTCLDY    52  48  85 W7        29.97R
PONTIAC        MOCLDY    51  48  89 W10       29.99R
PORT HOPE        N/A     55  48  77 NW9       29.93S
PORT HURON     CLEAR     50  45  81 CALM      29.97S
TRI CITIES     CLOUDY    53  51  93 W10       30.01R
MIDLAND        CLOUDY    53  49  86 W7        30.00S
TROY           CLOUDY    54  47  77 W6        30.01S
SAGINAW HB     CLOUDY    54  45  71 W9        29.99S
$$
MIZ043>046-050>051-056>058-064>065-071>073-077>080-271000-
SOUTHWEST LOWER MICHIGAN

CITY           SKY/WX    TMP DP  RH WIND       PRES   REMARKS
BATTLE CREEK   CLEAR     48  47  96 W5        30.06R
BENTON HARBOR  PTCLDY    57  49  74 NW3       30.08R
BIG RAPIDS     CLEAR     46  44  94 CALM      30.02F
COLDWATER      PTCLDY    49  47  93 W5        30.06R
FREMONT        FAIR      45  45 100 CALM      30.04S
HOLLAND        CLEAR     49  46  90 CALM      30.07S
GRAND RAPIDS   CLEAR     51  50  96 W6        30.05S
IONIA          FAIR      49  48  95 W6        30.04S
KALAMAZOO      CLEAR     51  46  83 NW7       30.07R
LUDINGTON      MOCLDY    52  51  96 W3        30.03S
MARSHALL       CLEAR     49  49  98 NW3       30.05R
MOUNT PLEASANT CLOUDY    52  48  88 W7        30.01S
MUSKEGON       CLEAR     49  46  90 CALM      30.06S
SOUTH HAVEN    CLEAR     57  52  85 CALM      30.07S
$$
MIZ016>042-271000-
NORTHERN LOWER MICHIGAN

CITY           SKY/WX    TMP DP  RH WIND       PRES   REMARKS
ALPENA         CLEAR     48  47  96 W6        29.94S
BEAVER ISLAND  FOG       44  44  99 CALM      29.99S VSB 1
BELLAIRE       CLOUDY    47  46  96 CALM      30.00S
CADILLAC       CLEAR     45  44  97 CALM      30.02R
CHARLEVOIX     CLEAR     50  49  95 SW5       30.02R
FRANKFORT      CLEAR     44  42  93 CALM      30.01S
GAYLORD        CLEAR     49  45  86 W6        29.98S
GRAYLING       CLEAR     47  46  99 W6        30.00R
HARBOR SPRINGS CLEAR     48  48 100 NW3       29.98S
HOUGHTON LAKE  MOCLDY    50  48  93 NW9       30.00S
MANISTEE       PTCLDY    42  42 100 CALM      30.02S
OSCODA         CLOUDY    51  49  91 W7        29.94S
PELLSTON       CLEAR     45  43  93 NW3       29.98R
ROGERS CITY    CLEAR     49  46  90 W8        29.95S
TRAVERSE CITY  CLEAR     49  47  93 CALM      29.99S
$$
MIZ007>008-015-271000-
EASTERN UPPER MICHIGAN

CITY           SKY/WX    TMP DP  RH WIND       PRES   REMARKS
KINROSS        CLEAR     42  41  96 W5        29.95S
MACKINAC ISLAN CLEAR     48  48 100 W8        29.97R
NEWBERRY       CLEAR     42  42  97 W6        29.96S
S. S. MARIE    CLEAR     46  44  93 W6        29.94R
MUNISING         N/A     42  41  96 S8        29.97R
$$
MIZ004>006-011>014-085-271000-
CENTRAL UPPER MICHIGAN

CITY           SKY/WX    TMP DP  RH WIND       PRES   REMARKS
MANISTIQUE     PTCLDY    41  38  89 CALM      29.98S
ESCANABA       CLEAR     46  45  96 W6        29.99S
MENOMINEE      CLEAR     48  47  96 CALM      30.02S
SAWYER-GWINN   CLOUDY    46  44  92 CALM      29.99R
$$
MIZ001>003-009>011-084-271000-
WESTERN UPPER MICHIGAN

CITY           SKY/WX    TMP DP  RH WIND       PRES   REMARKS
IRON MOUNTAIN  MOCLDY    48  44  86 NW3       30.00S
HOUGHTON       CLEAR     49  44  83 NW8       29.97S
COPPER HARBOR    N/A     53  46  77 W6        29.95S
IRONWOOD       CLOUDY    53  47  79 W5        30.02F
$$

ABBREVIATIONS USED IN REMARKS
   TC - TEMPERATURE IN CELSIUS
  WCI - WIND CHILL INDEX
   HX - HEAT INDEX
  VSB - VISIBILITY




USA.gov is the U.S. government's official web portal to all federal, state and local government web resources and services.